Year,Month,Day,Hour,Minute,Value (Times are PST for temperature in C)
2021,06,25,00,00,18.40
2021,06,25,00,01,18.40
2021,06,25,00,02,18.40
2021,06,25,00,03,18.40
2021,06,25,00,04,18.40
2021,06,25,00,05,18.40
2021,06,25,00,06,18.40
2021,06,25,00,07,18.40
2021,06,25,00,08,18.40
2021,06,25,00,09,18.40
2021,06,25,00,10,18.40
2021,06,25,00,11,18.50
2021,06,25,00,12,18.50
2021,06,25,00,13,18.50
2021,06,25,00,14,18.50
2021,06,25,00,15,18.50
2021,06,25,00,16,18.50
2021,06,25,00,17,18.50
2021,06,25,00,18,18.50
2021,06,25,00,19,18.50
2021,06,25,00,20,18.50
2021,06,25,00,21,18.40
2021,06,25,00,22,18.40
2021,06,25,00,23,18.40
2021,06,25,00,24,18.40
2021,06,25,00,25,18.40
2021,06,25,00,26,18.40
2021,06,25,00,27,18.40
2021,06,25,00,28,18.30
2021,06,25,00,29,18.30
2021,06,25,00,30,18.30
2021,06,25,00,31,18.30
2021,06,25,00,32,18.30
2021,06,25,00,33,18.30
2021,06,25,00,34,18.30
2021,06,25,00,35,18.30
2021,06,25,00,36,18.30
2021,06,25,00,37,18.30
2021,06,25,00,38,18.30
2021,06,25,00,39,18.30
2021,06,25,00,40,18.30
2021,06,25,00,41,18.30
2021,06,25,00,42,18.30
2021,06,25,00,43,18.30
2021,06,25,00,44,18.20
2021,06,25,00,45,18.20
2021,06,25,00,46,18.20
2021,06,25,00,47,18.20
2021,06,25,00,48,18.20
2021,06,25,00,49,18.20
2021,06,25,00,50,18.10
2021,06,25,00,51,18.10
2021,06,25,00,52,18.10
2021,06,25,00,53,18.00
2021,06,25,00,54,18.00
2021,06,25,00,55,18.00
2021,06,25,00,56,18.00
2021,06,25,00,57,18.00
2021,06,25,00,58,18.00
2021,06,25,00,59,18.00
2021,06,25,01,00,17.90
2021,06,25,01,01,17.90
2021,06,25,01,02,17.90
2021,06,25,01,03,17.90
2021,06,25,01,04,17.90
2021,06,25,01,05,17.90
2021,06,25,01,06,17.90
2021,06,25,01,07,17.90
2021,06,25,01,08,17.80
2021,06,25,01,09,17.80
2021,06,25,01,10,17.80
2021,06,25,01,11,17.80
2021,06,25,01,12,17.80
2021,06,25,01,13,17.80
2021,06,25,01,14,17.80
2021,06,25,01,15,17.80
2021,06,25,01,16,17.80
2021,06,25,01,17,17.80
2021,06,25,01,18,17.80
2021,06,25,01,19,17.80
2021,06,25,01,20,17.80
2021,06,25,01,21,17.80
2021,06,25,01,22,17.80
2021,06,25,01,23,17.80
2021,06,25,01,24,17.80
2021,06,25,01,25,17.80
2021,06,25,01,26,17.80
2021,06,25,01,27,17.80
2021,06,25,01,28,17.80
2021,06,25,01,29,17.80
2021,06,25,01,30,17.80
2021,06,25,01,31,17.80
2021,06,25,01,32,17.80
2021,06,25,01,33,17.80
2021,06,25,01,34,17.80
2021,06,25,01,35,17.80
2021,06,25,01,36,17.80
2021,06,25,01,37,17.80
2021,06,25,01,38,17.80
2021,06,25,01,39,17.80
2021,06,25,01,40,17.80
2021,06,25,01,41,17.80
2021,06,25,01,42,17.80
2021,06,25,01,43,17.70
2021,06,25,01,44,17.70
2021,06,25,01,45,17.70
2021,06,25,01,46,17.70
2021,06,25,01,47,17.70
2021,06,25,01,48,17.70
2021,06,25,01,49,17.70
2021,06,25,01,50,17.70
2021,06,25,01,51,17.70
2021,06,25,01,52,17.70
2021,06,25,01,53,17.70
2021,06,25,01,54,17.70
2021,06,25,01,55,17.80
2021,06,25,01,56,17.80
2021,06,25,01,57,17.80
2021,06,25,01,58,17.80
2021,06,25,01,59,17.80
2021,06,25,02,00,17.80
2021,06,25,02,01,17.80
2021,06,25,02,02,17.80
2021,06,25,02,03,17.80
2021,06,25,02,04,17.80
2021,06,25,02,05,17.80
2021,06,25,02,06,17.80
2021,06,25,02,07,17.70
2021,06,25,02,08,17.70
2021,06,25,02,09,17.70
2021,06,25,02,10,17.70
2021,06,25,02,11,17.70
2021,06,25,02,12,17.70
2021,06,25,02,13,17.70
2021,06,25,02,14,17.70
2021,06,25,02,15,17.70
2021,06,25,02,16,17.70
2021,06,25,02,17,17.70
2021,06,25,02,18,17.70
2021,06,25,02,19,17.70
2021,06,25,02,20,17.70
2021,06,25,02,21,17.70
2021,06,25,02,22,17.70
2021,06,25,02,23,17.70
2021,06,25,02,24,17.70
2021,06,25,02,25,17.70
2021,06,25,02,26,17.70
2021,06,25,02,27,17.70
2021,06,25,02,28,17.70
2021,06,25,02,29,17.70
2021,06,25,02,30,17.70
2021,06,25,02,31,17.70
2021,06,25,02,32,17.70
2021,06,25,02,33,17.70
2021,06,25,02,34,17.70
2021,06,25,02,35,17.60
2021,06,25,02,36,17.60
2021,06,25,02,37,17.60
2021,06,25,02,38,17.60
2021,06,25,02,39,17.60
2021,06,25,02,40,17.60
2021,06,25,02,41,17.60
2021,06,25,02,42,17.60
2021,06,25,02,43,17.70
2021,06,25,02,44,17.70
2021,06,25,02,45,17.70
2021,06,25,02,46,17.70
2021,06,25,02,47,17.70
2021,06,25,02,48,17.70
2021,06,25,02,49,17.60
2021,06,25,02,50,17.60
2021,06,25,02,51,17.60
2021,06,25,02,52,17.60
2021,06,25,02,53,17.60
2021,06,25,02,54,17.60
2021,06,25,02,55,17.60
2021,06,25,02,56,17.60
2021,06,25,02,57,17.60
2021,06,25,02,58,17.60
2021,06,25,02,59,17.60
2021,06,25,03,00,17.60
2021,06,25,03,01,17.60
2021,06,25,03,02,17.50
2021,06,25,03,03,17.50
2021,06,25,03,04,17.50
2021,06,25,03,05,17.50
2021,06,25,03,06,17.50
2021,06,25,03,07,17.50
2021,06,25,03,08,17.50
2021,06,25,03,09,17.50
2021,06,25,03,10,17.50
2021,06,25,03,11,17.50
2021,06,25,03,12,17.40
2021,06,25,03,13,17.40
2021,06,25,03,14,17.40
2021,06,25,03,15,17.40
2021,06,25,03,16,17.40
2021,06,25,03,17,17.40
2021,06,25,03,18,17.40
2021,06,25,03,19,17.40
2021,06,25,03,20,17.40
2021,06,25,03,21,17.40
2021,06,25,03,22,17.40
2021,06,25,03,23,17.40
2021,06,25,03,24,17.30
2021,06,25,03,25,17.30
2021,06,25,03,26,17.30
2021,06,25,03,27,17.30
2021,06,25,03,28,17.30
2021,06,25,03,29,17.30
2021,06,25,03,30,17.30
2021,06,25,03,31,17.30
2021,06,25,03,32,17.30
2021,06,25,03,33,17.30
2021,06,25,03,34,17.30
2021,06,25,03,35,17.30
2021,06,25,03,36,17.30
2021,06,25,03,37,17.30
2021,06,25,03,38,17.30
2021,06,25,03,39,17.30
2021,06,25,03,40,17.30
2021,06,25,03,41,17.20
2021,06,25,03,42,17.20
2021,06,25,03,43,17.20
2021,06,25,03,44,17.20
2021,06,25,03,45,17.20
2021,06,25,03,46,17.20
2021,06,25,03,47,17.20
2021,06,25,03,48,17.20
2021,06,25,03,49,17.20
2021,06,25,03,50,17.20
2021,06,25,03,51,17.20
2021,06,25,03,52,17.20
2021,06,25,03,53,17.20
2021,06,25,03,54,17.20
2021,06,25,03,55,17.20
2021,06,25,03,56,17.10
2021,06,25,03,57,17.10
2021,06,25,03,58,17.10
2021,06,25,03,59,17.10
2021,06,25,04,00,17.10
2021,06,25,04,01,17.10
2021,06,25,04,02,17.10
2021,06,25,04,03,17.10
2021,06,25,04,04,17.10
2021,06,25,04,05,17.00
2021,06,25,04,06,17.00
2021,06,25,04,07,17.00
2021,06,25,04,08,17.00
2021,06,25,04,09,17.00
2021,06,25,04,10,17.00
2021,06,25,04,11,17.00
2021,06,25,04,12,17.00
2021,06,25,04,13,17.00
2021,06,25,04,14,17.00
2021,06,25,04,15,17.00
2021,06,25,04,16,17.00
2021,06,25,04,17,17.00
2021,06,25,04,18,17.00
2021,06,25,04,19,17.00
2021,06,25,04,20,17.00
2021,06,25,04,21,17.00
2021,06,25,04,22,16.90
2021,06,25,04,23,16.90
2021,06,25,04,24,16.90
2021,06,25,04,25,16.90
2021,06,25,04,26,16.90
2021,06,25,04,27,16.90
2021,06,25,04,28,16.80
2021,06,25,04,29,16.80
2021,06,25,04,30,16.80
2021,06,25,04,31,16.80
2021,06,25,04,32,16.80
2021,06,25,04,33,16.80
2021,06,25,04,34,16.80
2021,06,25,04,35,16.80
2021,06,25,04,36,16.80
2021,06,25,04,37,16.80
2021,06,25,04,38,16.80
2021,06,25,04,39,16.80
2021,06,25,04,40,16.70
2021,06,25,04,41,16.70
2021,06,25,04,42,16.70
2021,06,25,04,43,16.70
2021,06,25,04,44,16.70
2021,06,25,04,45,16.60
2021,06,25,04,46,16.60
2021,06,25,04,47,16.60
2021,06,25,04,48,16.60
2021,06,25,04,49,16.60
2021,06,25,04,50,16.60
2021,06,25,04,51,16.60
2021,06,25,04,52,16.60
2021,06,25,04,53,16.60
2021,06,25,04,54,16.50
2021,06,25,04,55,16.50
2021,06,25,04,56,16.50
2021,06,25,04,57,16.50
2021,06,25,04,58,16.40
2021,06,25,04,59,16.40
2021,06,25,05,00,16.40
2021,06,25,05,01,16.40
2021,06,25,05,02,16.40
2021,06,25,05,03,16.40
2021,06,25,05,04,16.40
2021,06,25,05,05,16.40
2021,06,25,05,06,16.30
2021,06,25,05,07,16.30
2021,06,25,05,08,16.30
2021,06,25,05,09,16.30
2021,06,25,05,10,16.30
2021,06,25,05,11,16.30
2021,06,25,05,12,16.30
2021,06,25,05,13,16.30
2021,06,25,05,14,16.30
2021,06,25,05,15,16.20
2021,06,25,05,16,16.20
2021,06,25,05,17,16.20
2021,06,25,05,18,16.20
2021,06,25,05,19,16.20
2021,06,25,05,20,16.20
2021,06,25,05,21,16.20
2021,06,25,05,22,16.30
2021,06,25,05,23,16.30
2021,06,25,05,24,16.30
2021,06,25,05,25,16.30
2021,06,25,05,26,16.30
2021,06,25,05,27,16.30
2021,06,25,05,28,16.30
2021,06,25,05,29,16.30
2021,06,25,05,30,16.20
2021,06,25,05,31,16.20
2021,06,25,05,32,16.20
2021,06,25,05,33,16.20
2021,06,25,05,34,16.20
2021,06,25,05,35,16.20
2021,06,25,05,36,16.20
2021,06,25,05,37,16.20
2021,06,25,05,38,16.20
2021,06,25,05,39,16.20
2021,06,25,05,40,16.20
2021,06,25,05,41,16.20
2021,06,25,05,42,16.20
2021,06,25,05,43,16.20
2021,06,25,05,44,16.20
2021,06,25,05,45,16.20
2021,06,25,05,46,16.20
2021,06,25,05,47,16.20
2021,06,25,05,48,16.20
2021,06,25,05,49,16.20
2021,06,25,05,50,16.20
2021,06,25,05,51,16.20
2021,06,25,05,52,16.10
2021,06,25,05,53,16.10
2021,06,25,05,54,16.10
2021,06,25,05,55,16.10
2021,06,25,05,56,16.10
2021,06,25,05,57,16.10
2021,06,25,05,58,16.10
2021,06,25,05,59,16.10
2021,06,25,06,00,16.00
2021,06,25,06,01,16.00
2021,06,25,06,02,16.00
2021,06,25,06,03,16.00
2021,06,25,06,04,16.00
2021,06,25,06,05,16.00
2021,06,25,06,06,16.00
2021,06,25,06,07,16.10
2021,06,25,06,08,16.00
2021,06,25,06,09,16.00
2021,06,25,06,10,16.00
2021,06,25,06,11,16.00
2021,06,25,06,12,16.00
2021,06,25,06,13,16.00
2021,06,25,06,14,16.00
2021,06,25,06,15,16.00
2021,06,25,06,16,16.00
2021,06,25,06,17,16.00
2021,06,25,06,18,16.10
2021,06,25,06,19,16.10
2021,06,25,06,20,16.10
2021,06,25,06,21,16.10
2021,06,25,06,22,16.10
2021,06,25,06,23,16.10
2021,06,25,06,24,16.10
2021,06,25,06,25,16.10
2021,06,25,06,26,16.10
2021,06,25,06,27,16.10
2021,06,25,06,28,16.10
2021,06,25,06,29,16.10
2021,06,25,06,30,16.10
2021,06,25,06,31,16.10
2021,06,25,06,32,16.10
2021,06,25,06,33,16.10
2021,06,25,06,34,16.10
2021,06,25,06,35,16.10
2021,06,25,06,36,16.10
2021,06,25,06,37,16.10
2021,06,25,06,38,16.10
2021,06,25,06,39,16.10
2021,06,25,06,40,16.10
2021,06,25,06,41,16.20
2021,06,25,06,42,16.20
2021,06,25,06,43,16.20
2021,06,25,06,44,16.20
2021,06,25,06,45,16.30
2021,06,25,06,46,16.30
2021,06,25,06,47,16.30
2021,06,25,06,48,16.30
2021,06,25,06,49,16.30
2021,06,25,06,50,16.30
2021,06,25,06,51,16.40
2021,06,25,06,52,16.40
2021,06,25,06,53,16.40
2021,06,25,06,54,16.40
2021,06,25,06,55,16.40
2021,06,25,06,56,16.50
2021,06,25,06,57,16.60
2021,06,25,06,58,16.70
2021,06,25,06,59,16.70
2021,06,25,07,00,16.70
2021,06,25,07,01,16.80
2021,06,25,07,02,16.80
2021,06,25,07,03,16.80
2021,06,25,07,04,16.80
2021,06,25,07,05,16.80
2021,06,25,07,06,16.90
2021,06,25,07,07,16.90
2021,06,25,07,08,16.90
2021,06,25,07,09,17.00
2021,06,25,07,10,17.00
2021,06,25,07,11,17.00
2021,06,25,07,12,17.10
2021,06,25,07,13,17.10
2021,06,25,07,14,17.10
2021,06,25,07,15,17.10
2021,06,25,07,16,17.20
2021,06,25,07,17,17.20
2021,06,25,07,18,17.20
2021,06,25,07,19,17.30
2021,06,25,07,20,17.30
2021,06,25,07,21,17.30
2021,06,25,07,22,17.40
2021,06,25,07,23,17.40
2021,06,25,07,24,17.50
2021,06,25,07,25,17.50
2021,06,25,07,26,17.60
2021,06,25,07,27,17.70
2021,06,25,07,28,17.70
2021,06,25,07,29,17.80
2021,06,25,07,30,17.80
2021,06,25,07,31,17.90
2021,06,25,07,32,17.90
2021,06,25,07,33,17.90
2021,06,25,07,34,18.00
2021,06,25,07,35,18.00
2021,06,25,07,36,18.10
2021,06,25,07,37,18.30
2021,06,25,07,38,18.40
2021,06,25,07,39,18.50
2021,06,25,07,40,18.60
2021,06,25,07,41,18.70
2021,06,25,07,42,18.80
2021,06,25,07,43,18.90
2021,06,25,07,44,18.90
2021,06,25,07,45,19.00
2021,06,25,07,46,19.00
2021,06,25,07,47,19.10
2021,06,25,07,48,19.10
2021,06,25,07,49,19.10
2021,06,25,07,50,19.20
2021,06,25,07,51,19.20
2021,06,25,07,52,19.30
2021,06,25,07,53,19.30
2021,06,25,07,54,19.30
2021,06,25,07,55,19.40
2021,06,25,07,56,19.50
2021,06,25,07,57,19.50
2021,06,25,07,58,19.60
2021,06,25,07,59,19.60
2021,06,25,08,00,19.60
2021,06,25,08,01,19.70
2021,06,25,08,02,19.70
2021,06,25,08,03,19.80
2021,06,25,08,04,19.80
2021,06,25,08,05,19.80
2021,06,25,08,06,20.00
2021,06,25,08,07,20.00
2021,06,25,08,08,20.10
2021,06,25,08,09,20.20
2021,06,25,08,10,20.30
2021,06,25,08,11,20.30
2021,06,25,08,12,20.30
2021,06,25,08,13,20.40
2021,06,25,08,14,20.40
2021,06,25,08,15,20.50
2021,06,25,08,16,20.50
2021,06,25,08,17,20.60
2021,06,25,08,18,20.60
2021,06,25,08,19,20.60
2021,06,25,08,20,20.70
2021,06,25,08,21,20.70
2021,06,25,08,22,20.80
2021,06,25,08,23,20.80
2021,06,25,08,24,20.80
2021,06,25,08,25,20.90
2021,06,25,08,26,20.90
2021,06,25,08,27,20.90
2021,06,25,08,28,21.00
2021,06,25,08,29,21.00
2021,06,25,08,30,21.10
2021,06,25,08,31,21.20
2021,06,25,08,32,21.20
2021,06,25,08,33,21.30
2021,06,25,08,34,21.30
2021,06,25,08,35,21.30
2021,06,25,08,36,21.40
2021,06,25,08,37,21.40
2021,06,25,08,38,21.50
2021,06,25,08,39,21.50
2021,06,25,08,40,21.60
2021,06,25,08,41,21.60
2021,06,25,08,42,21.60
2021,06,25,08,43,21.70
2021,06,25,08,44,21.70
2021,06,25,08,45,21.70
2021,06,25,08,46,21.70
2021,06,25,08,47,21.80
2021,06,25,08,48,21.80
2021,06,25,08,49,21.80
2021,06,25,08,50,21.80
2021,06,25,08,51,21.90
2021,06,25,08,52,21.90
2021,06,25,08,53,22.00
2021,06,25,08,54,22.00
2021,06,25,08,55,22.10
2021,06,25,08,56,22.10
2021,06,25,08,57,22.20
2021,06,25,08,58,22.20
2021,06,25,08,59,22.20
2021,06,25,09,00,22.20
2021,06,25,09,01,22.30
2021,06,25,09,02,22.30
2021,06,25,09,03,22.40
2021,06,25,09,04,22.40
2021,06,25,09,05,22.40
2021,06,25,09,06,22.40
2021,06,25,09,07,22.40
2021,06,25,09,08,22.40
2021,06,25,09,09,22.40
2021,06,25,09,10,22.40
2021,06,25,09,11,22.40
2021,06,25,09,12,22.40
2021,06,25,09,13,22.40
2021,06,25,09,14,22.40
2021,06,25,13,11,30.40
2021,06,25,13,12,30.30
2021,06,25,13,13,30.30
2021,06,25,13,14,30.30
2021,06,25,13,15,30.30
2021,06,25,13,16,30.30
2021,06,25,13,17,30.40
2021,06,25,13,18,30.50
2021,06,25,13,19,30.60
2021,06,25,13,20,30.70
2021,06,25,13,21,30.80
2021,06,25,13,22,30.80
2021,06,25,13,23,30.90
2021,06,25,13,24,30.90
2021,06,25,13,25,30.90
2021,06,25,13,26,31.00
2021,06,25,13,27,31.10
2021,06,25,13,28,31.10
2021,06,25,13,29,31.10
2021,06,25,13,30,31.10
2021,06,25,13,31,31.00
2021,06,25,13,32,30.90
2021,06,25,13,33,30.60
2021,06,25,13,34,30.50
2021,06,25,13,35,30.40
2021,06,25,13,36,30.30
2021,06,25,13,37,30.40
2021,06,25,13,38,30.50
2021,06,25,13,39,30.60
2021,06,25,13,40,30.60
2021,06,25,13,41,30.70
2021,06,25,13,42,30.80
2021,06,25,13,43,31.00
2021,06,25,13,44,31.10
2021,06,25,13,45,31.20
2021,06,25,13,46,31.30
2021,06,25,13,47,31.50
2021,06,25,13,48,31.70
2021,06,25,13,49,31.80
2021,06,25,13,50,31.90
2021,06,25,13,51,32.10
2021,06,25,13,52,32.20
2021,06,25,13,53,32.20
2021,06,25,13,54,32.20
2021,06,25,13,55,32.20
2021,06,25,13,56,32.10
2021,06,25,13,57,32.10
2021,06,25,13,58,32.10
2021,06,25,13,59,32.20
2021,06,25,14,00,32.10
2021,06,25,14,01,32.10
2021,06,25,14,02,32.00
2021,06,25,14,03,31.90
2021,06,25,14,04,31.90
2021,06,25,14,05,31.90
2021,06,25,14,06,31.90
2021,06,25,14,07,31.80
2021,06,25,14,08,31.80
2021,06,25,14,09,31.80
2021,06,25,14,10,31.70
2021,06,25,14,11,31.70
2021,06,25,14,12,31.70
2021,06,25,14,13,31.70
2021,06,25,14,14,31.70
2021,06,25,14,15,31.70
2021,06,25,14,16,31.70
2021,06,25,14,17,31.70
2021,06,25,14,18,31.70
2021,06,25,14,19,31.80
2021,06,25,14,20,31.80
2021,06,25,14,21,31.90
2021,06,25,14,22,31.90
2021,06,25,14,23,32.00
2021,06,25,14,24,32.10
2021,06,25,14,25,32.20
2021,06,25,14,26,32.20
2021,06,25,14,27,32.30
2021,06,25,14,28,32.40
2021,06,25,14,29,32.40
2021,06,25,14,30,32.40
2021,06,25,14,31,32.40
2021,06,25,14,32,32.40
2021,06,25,14,33,32.40
2021,06,25,14,34,32.40
2021,06,25,14,35,32.30
2021,06,25,14,36,32.20
2021,06,25,14,37,32.10
2021,06,25,14,38,32.10
2021,06,25,14,39,32.20
2021,06,25,14,40,32.30
2021,06,25,14,41,32.30
2021,06,25,14,42,32.30
2021,06,25,14,43,32.30
2021,06,25,14,44,32.40
2021,06,25,14,45,32.50
2021,06,25,14,46,32.50
2021,06,25,14,47,32.50
2021,06,25,14,48,32.40
2021,06,25,14,49,32.40
2021,06,25,14,50,32.40
2021,06,25,14,51,32.40
2021,06,25,14,52,32.30
2021,06,25,14,53,32.30
2021,06,25,14,54,32.30
2021,06,25,14,55,32.30
2021,06,25,14,56,32.30
2021,06,25,14,57,32.30
2021,06,25,14,58,32.40
2021,06,25,14,59,32.40
2021,06,25,15,00,32.50
2021,06,25,15,01,32.50
2021,06,25,15,02,32.60
2021,06,25,15,03,32.60
2021,06,25,15,04,32.60
2021,06,25,15,05,32.70
2021,06,25,15,06,32.80
2021,06,25,15,07,33.00
2021,06,25,15,08,33.10
2021,06,25,15,09,33.20
2021,06,25,15,10,33.30
2021,06,25,15,11,33.40
2021,06,25,15,12,33.30
2021,06,25,15,13,33.20
2021,06,25,15,14,33.10
2021,06,25,15,15,33.00
2021,06,25,15,16,32.90
2021,06,25,15,17,32.70
2021,06,25,15,18,32.60
2021,06,25,15,19,32.50
2021,06,25,15,20,32.40
2021,06,25,15,21,32.40
2021,06,25,15,22,32.40
2021,06,25,15,23,32.40
2021,06,25,15,24,32.50
2021,06,25,15,25,32.40
2021,06,25,15,26,32.40
2021,06,25,15,27,32.30
2021,06,25,15,28,32.30
2021,06,25,15,29,32.30
2021,06,25,15,30,32.30
2021,06,25,15,31,32.20
2021,06,25,15,32,32.30
2021,06,25,15,33,32.30
2021,06,25,15,34,32.30
2021,06,25,15,35,32.40
2021,06,25,15,36,32.50
2021,06,25,15,37,32.60
2021,06,25,15,38,32.60
2021,06,25,15,39,32.50
2021,06,25,15,40,32.50
2021,06,25,15,41,32.40
2021,06,25,15,42,32.20
2021,06,25,15,43,32.20
2021,06,25,15,44,32.20
2021,06,25,15,45,32.20
2021,06,25,15,46,32.10
2021,06,25,15,47,32.10
2021,06,25,15,48,32.10
2021,06,25,15,49,32.10
2021,06,25,15,50,32.10
2021,06,25,15,51,32.10
2021,06,25,15,52,32.10
2021,06,25,15,53,32.20
2021,06,25,15,54,32.10
2021,06,25,15,55,32.00
2021,06,25,15,56,31.90
2021,06,25,15,57,31.90
2021,06,25,15,58,31.90
2021,06,25,15,59,31.90
2021,06,25,16,00,31.90
2021,06,25,16,01,31.90
2021,06,25,16,02,31.90
2021,06,25,16,03,31.90
2021,06,25,16,04,31.80
2021,06,25,16,05,31.70
2021,06,25,16,06,31.70
2021,06,25,16,07,31.60
2021,06,25,16,08,31.60
2021,06,25,16,09,31.60
2021,06,25,16,10,31.50
2021,06,25,16,11,31.40
2021,06,25,16,12,31.40
2021,06,25,16,13,31.40
2021,06,25,16,14,31.40
2021,06,25,16,15,31.40
2021,06,25,16,16,31.40
2021,06,25,16,17,31.30
2021,06,25,16,18,31.30
2021,06,25,16,19,31.30
2021,06,25,16,20,31.30
2021,06,25,16,21,31.30
2021,06,25,16,22,31.20
2021,06,25,16,23,31.20
2021,06,25,16,24,31.30
2021,06,25,16,25,31.30
2021,06,25,16,26,31.30
2021,06,25,16,27,31.40
2021,06,25,16,28,31.40
2021,06,25,16,29,31.40
2021,06,25,16,30,31.50
2021,06,25,16,31,31.40
2021,06,25,16,32,31.40
2021,06,25,16,33,31.40
2021,06,25,16,34,31.50
2021,06,25,16,35,31.50
2021,06,25,16,36,31.50
2021,06,25,16,37,31.50
2021,06,25,16,38,31.60
2021,06,25,16,39,31.60
2021,06,25,16,40,31.60
2021,06,25,16,41,31.70
2021,06,25,16,42,31.70
2021,06,25,16,43,31.70
2021,06,25,16,44,31.70
2021,06,25,16,45,31.70
2021,06,25,16,46,31.70
2021,06,25,16,47,31.70
2021,06,25,16,48,31.80
2021,06,25,16,49,31.80
2021,06,25,16,50,31.80
2021,06,25,16,51,31.80
2021,06,25,16,52,31.80
2021,06,25,16,53,31.80
2021,06,25,16,54,31.80
2021,06,25,16,55,31.80
2021,06,25,16,56,31.90
2021,06,25,16,57,31.90
2021,06,25,16,58,31.90
2021,06,25,16,59,31.90
2021,06,25,17,00,31.90
2021,06,25,17,01,31.90
2021,06,25,17,02,32.00
2021,06,25,17,03,32.00
2021,06,25,17,04,32.00
2021,06,25,17,05,32.10
2021,06,25,17,06,32.10
2021,06,25,17,07,32.10
2021,06,25,17,08,32.10
2021,06,25,17,09,32.10
2021,06,25,17,10,32.10
2021,06,25,17,11,32.10
2021,06,25,17,12,32.00
2021,06,25,17,13,32.00
2021,06,25,17,14,32.00
2021,06,25,17,15,32.00
2021,06,25,17,16,32.00
2021,06,25,17,17,32.00
2021,06,25,17,18,32.00
2021,06,25,17,19,32.00
2021,06,25,17,20,32.00
2021,06,25,17,21,32.00
2021,06,25,17,22,32.00
2021,06,25,17,23,32.00
2021,06,25,17,24,32.10
2021,06,25,17,25,32.10
2021,06,25,17,26,32.10
2021,06,25,17,27,32.10
2021,06,25,17,28,32.10
2021,06,25,17,29,32.10
2021,06,25,17,30,32.10
2021,06,25,17,31,32.10
2021,06,25,17,32,32.10
2021,06,25,17,33,32.10
2021,06,25,17,34,32.10
2021,06,25,17,35,32.10
2021,06,25,17,36,32.10
2021,06,25,17,37,32.10
2021,06,25,17,38,32.10
2021,06,25,17,39,32.10
2021,06,25,17,40,32.10
2021,06,25,17,41,32.10
2021,06,25,17,42,32.10
2021,06,25,17,43,32.10
2021,06,25,17,44,32.10
2021,06,25,17,45,32.10
2021,06,25,17,46,32.10
2021,06,25,17,47,32.00
2021,06,25,17,48,32.00
2021,06,25,17,49,32.00
2021,06,25,17,50,32.00
2021,06,25,17,51,31.90
2021,06,25,17,52,31.90
2021,06,25,17,53,31.90
2021,06,25,17,54,31.90
2021,06,25,17,55,31.90
2021,06,25,17,56,31.90
2021,06,25,17,57,31.80
2021,06,25,17,58,31.80
2021,06,25,17,59,31.80
2021,06,25,18,00,31.80
2021,06,25,18,01,31.80
2021,06,25,18,02,31.80
2021,06,25,18,03,31.80
2021,06,25,18,04,31.80
2021,06,25,18,05,31.80
2021,06,25,18,06,31.80
2021,06,25,18,07,31.80
2021,06,25,18,08,31.80
2021,06,25,18,09,31.80
2021,06,25,18,10,31.80
2021,06,25,18,11,31.90
2021,06,25,18,12,31.90
2021,06,25,18,13,31.80
2021,06,25,18,14,31.80
2021,06,25,18,15,31.80
2021,06,25,18,16,31.90
2021,06,25,18,17,31.90
2021,06,25,18,18,31.90
2021,06,25,18,19,31.90
2021,06,25,18,20,32.00
2021,06,25,18,21,32.00
2021,06,25,18,22,32.00
2021,06,25,18,23,32.00
2021,06,25,18,24,32.00
2021,06,25,18,25,32.00
2021,06,25,18,26,32.00
2021,06,25,18,27,32.00
2021,06,25,18,28,32.00
2021,06,25,18,29,31.90
2021,06,25,18,30,31.90
2021,06,25,18,31,31.90
2021,06,25,18,32,31.90
2021,06,25,18,33,31.90
2021,06,25,18,34,31.80
2021,06,25,18,35,31.80
2021,06,25,18,36,31.80
2021,06,25,18,37,31.80
2021,06,25,18,38,31.80
2021,06,25,18,39,31.70
2021,06,25,18,40,31.70
2021,06,25,18,41,31.70
2021,06,25,18,42,31.70
2021,06,25,18,43,31.60
2021,06,25,18,44,31.60
2021,06,25,18,45,31.60
2021,06,25,18,46,31.50
2021,06,25,18,47,31.40
2021,06,25,18,48,31.40
2021,06,25,18,49,31.40
2021,06,25,18,50,31.30
2021,06,25,18,51,31.30
2021,06,25,18,52,31.30
2021,06,25,18,53,31.30
2021,06,25,18,54,31.30
2021,06,25,18,55,31.30
2021,06,25,18,56,31.30
2021,06,25,18,57,31.30
2021,06,25,18,58,31.30
2021,06,25,18,59,31.20
2021,06,25,19,00,31.20
2021,06,25,19,01,31.20
2021,06,25,19,02,31.20
2021,06,25,19,03,31.20
2021,06,25,19,04,31.20
2021,06,25,19,05,31.20
2021,06,25,19,06,31.20
2021,06,25,19,07,31.20
2021,06,25,19,08,31.20
2021,06,25,19,09,31.20
2021,06,25,19,10,31.20
2021,06,25,19,11,31.20
2021,06,25,19,12,31.20
2021,06,25,19,13,31.20
2021,06,25,19,14,31.20
2021,06,25,19,15,31.10
2021,06,25,19,16,31.10
2021,06,25,19,17,31.10
2021,06,25,19,18,31.00
2021,06,25,19,19,31.00
2021,06,25,19,20,30.90
2021,06,25,19,21,30.90
2021,06,25,19,22,30.90
2021,06,25,19,23,30.90
2021,06,25,19,24,30.90
2021,06,25,19,25,30.90
2021,06,25,19,26,30.80
2021,06,25,19,27,30.80
2021,06,25,19,28,30.80
2021,06,25,19,29,30.80
2021,06,25,19,30,30.80
2021,06,25,19,31,30.70
2021,06,25,19,32,30.70
2021,06,25,19,33,30.70
2021,06,25,19,34,30.70
2021,06,25,19,35,30.60
2021,06,25,19,36,30.60
2021,06,25,19,37,30.60
2021,06,25,19,38,30.60
2021,06,25,19,39,30.60
2021,06,25,19,40,30.50
2021,06,25,19,41,30.50
2021,06,25,19,42,30.50
2021,06,25,19,43,30.50
2021,06,25,19,44,30.50
2021,06,25,19,45,30.40
2021,06,25,19,46,30.40
2021,06,25,19,47,30.40
2021,06,25,19,48,30.40
2021,06,25,19,49,30.40
2021,06,25,19,50,30.40
2021,06,25,19,51,30.30
2021,06,25,19,52,30.30
2021,06,25,19,53,30.30
2021,06,25,19,54,30.20
2021,06,25,19,55,30.20
2021,06,25,19,56,30.10
2021,06,25,19,57,30.10
2021,06,25,19,58,30.00
2021,06,25,19,59,29.90
2021,06,25,20,00,29.90
2021,06,25,20,01,29.80
2021,06,25,20,02,29.70
2021,06,25,20,03,29.70
2021,06,25,20,04,29.60
2021,06,25,20,05,29.60
2021,06,25,20,06,29.60
2021,06,25,20,07,29.50
2021,06,25,20,08,29.50
2021,06,25,20,09,29.40
2021,06,25,20,10,29.40
2021,06,25,20,11,29.30
2021,06,25,20,12,29.30
2021,06,25,20,13,29.20
2021,06,25,20,14,29.20
2021,06,25,20,15,29.20
2021,06,25,20,16,29.10
2021,06,25,20,17,29.10
2021,06,25,20,18,29.00
2021,06,25,20,19,28.90
2021,06,25,20,20,28.90
2021,06,25,20,21,28.80
2021,06,25,20,22,28.80
2021,06,25,20,23,28.70
2021,06,25,20,24,28.70
2021,06,25,20,25,28.60
2021,06,25,20,26,28.60
2021,06,25,20,27,28.60
2021,06,25,20,28,28.50
2021,06,25,20,29,28.50
2021,06,25,20,30,28.50
2021,06,25,20,31,28.40
2021,06,25,20,32,28.40
2021,06,25,20,33,28.30
2021,06,25,20,34,28.30
2021,06,25,20,35,28.20
2021,06,25,20,36,28.10
2021,06,25,20,37,28.00
2021,06,25,20,38,28.00
2021,06,25,20,39,27.90
2021,06,25,20,40,27.90
2021,06,25,20,41,27.80
2021,06,25,20,42,27.80
2021,06,25,20,43,27.70
2021,06,25,20,44,27.70
2021,06,25,20,45,27.60
2021,06,25,20,46,27.60
2021,06,25,20,47,27.50
2021,06,25,20,48,27.40
2021,06,25,20,49,27.30
2021,06,25,20,50,27.30
2021,06,25,20,51,27.20
2021,06,25,20,52,27.20
2021,06,25,20,53,27.10
2021,06,25,20,54,27.00
2021,06,25,20,55,27.00
2021,06,25,20,56,26.90
2021,06,25,20,57,26.90
2021,06,25,20,58,26.80
2021,06,25,20,59,26.70
2021,06,25,21,00,26.70
2021,06,25,21,01,26.60
2021,06,25,21,02,26.50
2021,06,25,21,03,26.40
2021,06,25,21,04,26.40
2021,06,25,21,05,26.30
2021,06,25,21,06,26.20
2021,06,25,21,07,26.10
2021,06,25,21,08,26.00
2021,06,25,21,09,26.00
2021,06,25,21,10,25.90
2021,06,25,21,11,25.90
2021,06,25,21,12,25.80
2021,06,25,21,13,25.80
2021,06,25,21,14,25.80
2021,06,25,21,15,25.70